Cloud_Cover
0 3 0 0 1 0 4 5 18 12 100 100 100 100 100 8 5 4 18 0 4 4 0 4 0 0 0 2 39 5 41 81 4 0 0 0 14 50 15 81 60 99 76 17
0 0 0 0 0 0 0 5 5 5 82 100 100 100 100 12 5 5 5 5 65 1 3 0 2 0 0 0 4 1 4 5 0 0 0 0 17 30 38 48 6 69 54 96
0 0 0 0 0 0 0 11 48 5 5 98 100 100 83 100 21 34 46 41 5 70 4 1 5 1 0 0 1 1 0 0 52 5 5 5 5 99 94 26 54 11 15 98
0 0 0 0 0 0 0 4 5 5 26 97 100 100 97 100 85 9 65 6 5 6 13 5 2 3 5 0 0 0 0 3 30 55 5 5 4 4 11 19 55 100 27 64
0 0 0 0 0 0 0 0 2 0 0 5 82 100 34 98 99 5 100 28 8 81 20 1 2 1 0 0 0 0 3 0 5 4 3 0 0 0 0 2 5 33 81 32
0 0 0 0 0 0 0 0 0 0 9 2 0 38 99 72 99 97 62 94 5 5 6 5 4 2 5 2 5 0 0 0 0 0 0 0 0 0 0 0 1 5 10 7
0 0 0 0 0 0 0 0 1 0 5 3 0 4 100 84 98 81 89 83 81 8 5 8 5 5 5 5 10 4 2 0 0 0 0 0 0 0 0 0 0 0 23 9
0 0 0 0 0 0 0 0 0 0 0 0 0 0 0 0 99 100 52 5 11 86 51 5 5 10 5 57 5 57 12 0 0 0 0 0 0 0 0 0 0 2 5 0
0 0 0 0 0 0 0 0 0 0 0 0 0 0 0 0 0 58 100 100 12 6 100 47 5 5 68 34 91 31 89 5 0 0 0 2 0 0 0 0 0 5 5 5
0 0 0 0 0 0 0 0 0 0 0 0 0 0 0 0 0 0 11 100 100 14 62 80 12 5 5 99 100 100 99 38 14 5 22 92 14 0 0 5 5 5 0 0
0 0 0 0 0 0 0 0 0 0 0 0 0 0 0 0 0 0 1 11 97 100 16 41 16 5 99 75 94 100 100 100 100 92 66 66 81 91 69 7 5 5 3 0
0 0 0 0 0 0 0 0 0 0 0 0 0 0 0 0 0 3 100 100 7 22 49 18 5 5 52 77 28 100 100 54 100 100 100 99 69 38 45 38 5 5 4 2
0 0 0 0 0 0 0 0 0 0 0 0 0 0 0 0 0 2 83 100 100 12 5 5 5 80 98 95 30 0 63 80 100 13 20 5 12 38 15 49 99 100 86 71
0 0 0 0 0 0 0 0 0 0 0 0 0 0 0 0 0 0 14 92 100 15 4 2 5 96 58 67 56 7 34 85 96 15 5 39 5 4 5 16 92 15 78 100
0 0 0 0 0 0 0 0 0 0 1 0 0 0 0 0 0 0 0 1 27 3 0 0 0 36 78 76 94 100 53 77 63 27 22 4 1 5 5 35 18 64 2 5
0 0 0 0 0 0 0 0 0 0 0 5 0 0 0 0 0 0 0 0 0 0 0 0 0 16 39 82 29 56 46 4 5 12 49 5 100 4 5 39 8 92 6 5
0 0 0 0 0 0 0 0 0 0 3 5 5 5 0 0 0 0 0 5 5 5 1 0 0 0 99 61 45 6 34 100 100 57 13 4 5 2 29 54 17 13 80 62
0 0 0 0 0 0 0 0 0 0 0 2 5 43 6 5 1 0 0 0 3 5 5 4 2 2 0 6 5 2 4 36 98 26 12 5 5 26 10 5 94 96 42 43
1 4 4 1 0 0 0 0 0 0 0 0 0 2 52 71 18 2 0 0 0 0 0 2 5 19 100 14 3 0 0 0 0 82 74 43 7 5 3 4 1 46 6 44
5 5 5 5 2 4 0 0 0 0 0 0 0 4 3 5 71 40 7 0 0 0 3 1 2 1 0 1 0 0 0 0 0 98 96 100 81 0 0 0 0 50 72 100
0 0 0 0 5 85 5 5 2 5 2 1 4 3 0 0 4 6 5 5 1 0 0 0 2 5 5 0 0 0 2 4 4 0 25 76 100 88 20 33 34 86 92 92
4 6 2 5 18 96 20 7 92 75 5 5 5 17 100 98 57 4 4 5 5 18 4 0 0 0 0 0 0 0 0 0 0 0 0 0 23 57 20 20 100 94 100 100
5 0 5 6 41 11 46 100 98 34 99 96 85 5 5 10 40 41 5 2 0 1 5 1 0 0 0 0 0 0 0 0 0 0 0 0 0 12 81 100 100 100 100 100
8 1 0 12 36 3 99 100 100 22 8 50 90 94 8 18 7 27 5 5 10 31 5 0 0 0 0 0 0 0 0 0 0 0 0 0 0 10 54 98 100 100 100 100
83 6 5 10 100 100 100 97 80 100 98 14 22 100 100 70 98 22 38 6 5 5 5 5 4 0 0 0 0 0 0 0 0 0 0 0 1 6 86 99 69 84 100 62
56 4 5 94 100 15 100 100 94 69 100 99 34 100 100 100 33 5 7 34 18 8 5 5 5 5 0 0 0 0 0 0 0 0 0 6 99 88 100 91 100 100 100 100